GW1242 Weather Reports


time (UTC)temp
C
wind
direction
speed
KPH
gust
KPH
rain 1hr
cm
rain 24hr
cm
rain mn
cm
humidity
%
barometer
mb
20260508120033 2 225 0.0 0.0 0.00 0.00 0.00 97 1113.7
20260508114540 1 225 0.0 0.0 0.00 0.00 0.00 97 1113.4
20260508113039 1 225 0.0 0.0 0.00 0.00 0.00 97 1113.1
20260508111541 0 225 0.0 0.0 0.00 0.00 0.00 96 1112.8
20260508110030 0 225 0.0 0.0 0.00 0.00 0.00 96 1112.6
20260508104540 0 225 0.0 0.0 0.00 0.03 0.00 96 1112.6
20260508103107 1 225 0.0 0.0 0.00 0.03 0.00 96 1112.4
20260508101532 1 225 0.0 0.0 0.00 0.03 0.00 96 1112.2
20260508100040 1 225 0.0 0.0 0.00 0.03 0.00 96 1112.1
20260508093039 1 225 0.0 0.0 0.00 0.03 0.00 96 1112.0
20260508091539 2 225 0.0 0.0 0.00 0.05 0.00 96 1111.9
20260508090051 2 225 0.0 0.0 0.00 0.05 0.00 96 1112.0
20260508084615 2 225 0.0 0.0 0.00 0.05 0.00 96 1111.9
20260508081539 2 225 0.0 0.0 0.00 0.05 0.00 96 1112.0
20260508080144 3 225 0.0 0.0 0.00 0.05 0.00 95 1112.0
20260508074644 3 225 0.0 0.0 0.00 0.05 0.00 95 1112.0
20260508073052 3 225 0.0 0.0 0.00 0.05 0.00 95 1112.0
20260508071540 3 225 0.0 0.0 0.00 0.05 0.00 95 1112.1
20260508064532 4 225 0.0 0.0 0.00 0.05 0.00 95 1112.1
20260508061532 4 225 0.0 0.0 0.00 0.05 0.00 95 1112.3
20260508060040 5 225 0.0 0.0 0.00 0.05 0.00 94 1112.2
20260508054541 5 225 0.0 0.0 0.00 0.05 0.00 94 1112.2
20260508053039 5 225 0.0 0.0 0.00 0.05 0.00 94 1112.3
20260508051541 5 225 0.0 0.0 0.00 0.05 0.00 94 1112.3
20260508050039 5 225 0.0 0.0 0.00 0.05 0.00 93 1112.2
20260508044531 6 225 0.0 0.0 0.00 0.05 0.00 93 1112.0
20260508043114 6 225 0.0 0.0 0.00 0.05 0.00 93 1111.7
20260508041539 6 225 0.0 3.2 0.00 0.05 0.00 93 1111.7
20260508040040 6 225 0.0 1.6 0.00 0.05 0.00 93 1111.6
20260508034533 7 225 0.0 1.6 0.00 0.05 0.05 93 1111.6
20260508033039 7 225 0.0 0.0 0.00 0.05 0.05 93 1111.4
20260508031538 6 251 0.0 8.0 0.00 0.05 0.05 92 1111.5
20260508030115 6 360 0.0 1.6 0.00 0.05 0.05 92 1111.6
20260508024642 7 360 0.0 1.6 0.00 0.05 0.05 91 1111.4
20260508023039 7 360 0.0 0.0 0.00 0.05 0.05 90 1111.1
20260508021529 7 360 0.0 0.0 0.00 0.05 0.05 89 1111.0
20260508020039 8 360 0.0 0.0 0.00 0.05 0.05 89 1110.8
20260508014539 8 360 0.0 1.6 0.00 0.05 0.05 87 1110.7
20260508013051 8 360 0.0 1.6 0.00 0.05 0.05 85 1110.5
20260508011541 9 360 0.0 0.0 0.00 0.05 0.05 83 1110.2
20260508010038 10 360 0.0 3.2 0.00 0.05 0.05 80 1110.0
20260508004528 11 360 0.0 4.8 0.00 0.05 0.05 74 1109.9
20260508003116 13 360 0.0 1.6 0.00 0.05 0.05 67 1109.7
20260508001539 16 360 0.0 1.6 0.00 0.05 0.05 61 1109.5
20260508000142 17 319 0.0 3.2 0.00 0.05 0.05 60 1109.3
20260507233126 12 247 0.0 3.2 0.00 0.05 0.03 93 1108.2